Hourly Data Report for October 12, 2015

All times are specified in Local Standard Time (LST). Add 1 hour to adjust for Daylight Saving Time where and when it is observed.

EUREKA CLIMATE
NUNAVUT

79°59'21.000" N
85°56'02.000" W
10.00 m
2401199
71613
NEK

Download Data

Hourly Data (October 2015)
Hourly Data Report for October 12, 2015
Temp Definition
°C
Dew Point Temp Definition
°C
Rel Hum Definition
%
Wind Dir Definition
10's deg

Wind Spd Definition
km/h
Visibility Definition
km
Stn Press Definition
kPa
Hmdx Definition


Wind Chill Definition


Weather Definition


TIME
00:00 -21.8 -23.5 86 3 1   101.05   -23 LegendNANA
01:00 -21.5 -23.3 85 9 1   100.99   -22 LegendNANA
02:00 -22.9 -24.8 84 4 1   100.93   -24 LegendNANA
03:00 -22.9 -24.8 84 5 1   100.87   -24 LegendNANA
04:00 -22.7 -24.6 84 10 1   100.83   -24 LegendNANA
05:00 -22.8 -24.7 84 7 1   100.77   -24 LegendNANA
06:00 -22.1 -23.9 85 12 1   100.73   -23 LegendNANA
07:00 -21.3 -23.0 86 6 1   100.68   -22 LegendNANA
08:00 -21.2 -22.9 86 3 1   100.63   -22 LegendNANA
09:00 -20.8 -22.5 86 9 1   100.58   -22 LegendNANA
10:00 -21.3 -23.1 86 11 1   100.56   -22 LegendNANA
11:00 -21.9 -23.6 86 10 1   100.51   -23 LegendNANA
12:00 -21.6 -23.3 87 11 1   100.48   -22 LegendNANA
13:00 -22.6 -24.4 85 4 1   100.43   -24 LegendNANA
14:00 -22.8 -24.8 84 7 1   100.42   -24 LegendNANA
15:00 -22.7 -24.5 85 4 1   100.39   -24 LegendNANA
16:00 -22.8 -24.7 84 9 1   100.39   -24 LegendNANA
17:00 -22.7 -24.6 85 4 1   100.36   -24 LegendNANA
18:00 -22.2 -24.0 85 10 1   100.35   -23 LegendNANA
19:00 -23.5 -25.5 84 5 1   100.33   -24 LegendNANA
20:00 -23.3 -25.2 84 7 1   100.29   -24 LegendNANA
21:00 -23.3 -25.2 84 8 1   100.28   -24 LegendNANA
22:00 -24.6 -26.8 82 6 1   100.26   -26 LegendNANA
23:00 -23.9 -25.9 83 9 1   100.24   -25 LegendNANA

Notes on Data Quality.

Legend

  • E = Estimated
  • M = Missing
  • NA = Not Available
  • ‡ = Partner data that is not subject to review by the National Climate Archives
Date modified: